This is the latest recevied weather packets stored in our database for station/object KO4ZGL-13. If no packets are shown the sender has not sent any weather packets the latest 10 day(s).
| Time | Temp. | Humidity | Pressure | Rain* | Wind** | Luminosity | Snow |
|---|---|---|---|---|---|---|---|
| 1788018709 | 25.56° C | 99% | 1022.1 hPa | 0 mm | - | 287 W/m² | - |
| 1788018409 | 25.56° C | 99% | 1021.9 hPa | 0 mm | - | 293 W/m² | - |
| 1788018103 | 25° C | 99% | 1022 hPa | 0 mm | - | 305 W/m² | - |
| 1788017800 | 25° C | 99% | 1022.3 hPa | 0 mm | - | 272 W/m² | - |
| 1788017496 | 25° C | 99% | 1022 hPa | 0 mm | - | 279 W/m² | - |
| 1788017193 | 25.56° C | 99% | 1021.9 hPa | 0 mm | - | 271 W/m² | - |
| 1788016893 | 25° C | 99% | 1022.2 hPa | 0 mm | - | 277 W/m² | - |
| 1788016591 | 25° C | 99% | 1022.4 hPa | 0 mm | - | 271 W/m² | - |
| 1788016286 | 25° C | 99% | 1022 hPa | 0 mm | - | 246 W/m² | - |
| 1788015985 | 25° C | 99% | 1022.1 hPa | 0 mm | - | 227 W/m² | - |
| 1788015680 | 25° C | 99% | 1022.1 hPa | 0 mm | - | 282 W/m² | - |
| 1788015374 | 24.44° C | 99% | 1022.1 hPa | 0 mm | - | 296 W/m² | - |
| 1788015069 | 24.44° C | 99% | 1022.1 hPa | 0 mm | - | 255 W/m² | - |
| 1788014767 | 24.44° C | 99% | 1022.1 hPa | 0 mm | - | 216 W/m² | - |
| 1788014462 | 23.89° C | 99% | 1022 hPa | 0 mm | - | 186 W/m² | - |
| 1788014157 | 23.89° C | 99% | 1022.1 hPa | 0 mm | - | 139 W/m² | - |
| 1788013851 | 23.89° C | 99% | 1022.2 hPa | 0 mm | - | 115 W/m² | - |
| 1788013550 | 23.89° C | 99% | 1022.1 hPa | 0 mm | - | 99 W/m² | - |
| 1788013245 | 23.89° C | 99% | 1022.1 hPa | 0 mm | - | 81 W/m² | - |
| 1788012945 | 23.89° C | 99% | 1021.9 hPa | 0 mm | - | 81 W/m² | - |
| 1788012644 | 23.33° C | 99% | 1021.8 hPa | 0 mm | - | 86 W/m² | - |
| 1788012339 | 23.89° C | 99% | 1021.8 hPa | 0 mm | - | 88 W/m² | - |
| 1788012035 | 23.89° C | 99% | 1021.7 hPa | 0 mm | - | 86 W/m² | - |
| 1788011733 | 23.89° C | 99% | 1021.5 hPa | 0 mm | - | 84 W/m² | - |
| 1788011428 | 23.33° C | 99% | 1021.7 hPa | 0 mm | - | 84 W/m² | - |
* Rain latest hour (hover to see other rain measurements)
** Current wind speed in m/s (hover to see current wind gust speed)